Flag for Kiribati Weather past 2 weeks in Kiritimati, Christmas Island, Kiribati

Now
84 °F

Scattered clouds.


Feels Like: 94 °F
Forecast: 80 / 84 °F
Wind: 2 mph from North

Location: Christmas / Cassidy

Current Time: May 23, 2015 at 5:41:20 PM

Latest Report: May 23, 2015 at 4:00 PM


Visibility: N/A

Pressure: 29.80 "Hg

Humidity: 79%

Dew point: 77 °F

Location of KiritimatiLocation

Historic Weather in Kiritimati — Graph

°F

Kiritimati temperature yesterday

Maximum temperature yesterday: 88 °F (at 11:00 AM)
Minimum temperature yesterday: 77 °F (at 12:00 AM)
Average temperature yesterday: 82 °F

Past Weeks' High & Low Weather Summary

 TemperatureHumidityPressure
High88 °F (May 11, 12:00 PM)100% (May 8, 4:00 PM)30.01 "Hg (May 8, 4:00 PM)
Low75 °F (May 14, 2:00 AM)62% (May 15, 1:00 PM)29.65 "Hg (May 8, 4:00 PM)
Average82 °F85%29.81 "Hg
* Reported May 8 4:00 PM — May 23 4:00 PM, Kiritimati, Weather by CustomWeather, © 2015

Note: Actual official high and low records may vary slightly from our data, if they occured in-between our weather recording intervals... More about our weather records

Advertising

Kiritimati weather history for previous 24 hours

 ConditionsComfort  
Time TempWeatherWind HumidityBarometerVisibility
4:00 PM
Sat, May 23
84 °FScattered clouds.2 mph79%29.80 "HgN/A
3:00 PM84 °FScattered showers. Partly sunny.5 mph74%29.83 "HgN/A
2:00 PM86 °FBroken clouds.7 mph79%29.83 "HgN/A
1:00 PM84 °FPartly sunny.2 mph84%29.83 "HgN/A
12:00 PM81 °FPartly sunny.2 mph89%29.86 "HgN/A
11:00 AM81 °FRain showers. Broken clouds.9 mph94%29.89 "HgN/A
10:00 AM86 °FScattered showers. Cloudy.7 mph79%29.89 "HgN/A
9:00 AM84 °FScattered clouds.9 mph79%29.92 "HgN/A
8:00 AM84 °FScattered clouds.5 mph79%29.89 "HgN/A
7:00 AM81 °FScattered clouds.No wind89%29.86 "HgN/A
6:00 AM75 °FScattered clouds.2 mph100%29.86 "HgN/A
5:00 AM77 °FPassing clouds.No wind100%29.83 "HgN/A
4:00 AM77 °FPassing clouds.No wind100%29.83 "HgN/A
3:00 AM77 °FPassing clouds.No wind100%29.83 "HgN/A
1:00 AM79 °FPassing clouds.2 mph94%29.86 "Hg10 mi
12:00 AM81 °FPassing clouds.No wind89%29.89 "HgN/A
11:00 PM
Fri, May 22
81 °FPassing clouds.5 mph89%29.89 "HgN/A
10:00 PM82 °FPassing clouds.2 mph84%29.86 "HgN/A
8:00 PM82 °FPassing clouds.No wind84%29.86 "HgN/A
7:00 PM82 °FPassing clouds.2 mph84%29.83 "HgN/A
5:00 PM84 °FPassing clouds.7 mph79%29.80 "HgN/A
Weather by CustomWeather, © 2015

See weather overviewHow to use our weather pages